Regional Weather Roundup
Issued by NWS Sterling, VA

Home | Current Version | Previous Version | Graphics & Text | Print | Product List | Glossary On
Versions: 1 2 3 4 5 6 7 8 9 10 11 12 13 14 15 16 17 18 19 20 21 22 23 24 25 26 27 28
000
ASUS41 KLWX 161310
RWRLWX

REGIONAL WEATHER ROUNDUP
NATIONAL WEATHER SERVICE BALTIMORE MD/WASHINGTON DC
900 AM EDT WED APR 16 2014

Note: "FAIR" indicates few or no clouds below 12,000 feet
with no significant weather and/or obstructions to visibility.
 TC=TEMPERATURE CELSIUS

 * =Non NWS site. Station does not report precipitation (e.g. rain,
    snow, etc.), thunder, or fog.

DCZ001-MDZ009-015-VAZ040>042-051-053>054-161400-
WASHINGTON METRO

CITY           SKY/WX    TMP DP  RH WIND       PRES   REMARKS
WASHINGTON NAT MOSUNNY   38  14  37 N21       30.40R WCI  28
DULLES         MOSUNNY   33  11  39 NW21G32   30.38R WCI  21
ANDREWS AFB    SUNNY     35  15  44 N18G24    30.38R WCI  24
FT BELVOIR     SUNNY     36  11  35 N14G24    30.41R WCI  27
QUANTICO       SUNNY     37  15  40 N15G28    30.42R WCI  28
COLLEGE PARK*  SUNNY     36  14  41 NW10      30.39R WCI  28
LEESBURG*      SUNNY     34  19  55 N12       30.41R WCI  25
MANASSAS*      SUNNY     36  18  48 N15G29    30.41R WCI  26
GAITHERSBURG*  SUNNY     34  14  44 NW13G23   30.40R WCI  25

$$

MDZ006>007-011-014-161400-
BALTIMORE METRO

CITY           SKY/WX    TMP DP  RH WIND       PRES   REMARKS
BWI AIRPORT    MOSUNNY   35  13  40 N14G24    30.36R WCI  26
MD SCIENCE CTR   N/A     36  11  35 MISG      30.39R
MARTIN STATE   SUNNY     36  18  48 NW14G23   30.38R WCI  27
ANNAPOLIS      SUNNY     37  21  52 N17G24    30.37R WCI  27
FORT MEADE*    SUNNY     34  16  47 N12G20    30.40R WCI  25

$$

MDZ012-015-019>023-161400-
MARYLAND EASTERN SHORE

CITY           SKY/WX    TMP DP  RH WIND       PRES   REMARKS
OCEAN CITY     SUNNY     37  20  50 N20G30    30.29R WCI  27
SALISBURY      SUNNY     37  18  46 NW23G30   30.31R WCI  26
BAY BRIDGE AP* SUNNY     36  18  48 NW16G25   30.37R WCI  26
CAMBRIDGE*     SUNNY     37  16  41 N14G23    30.33R WCI  29
EASTON*        SUNNY     37  18  44 MISG      30.38R

$$

MDZ017>025-161400-
SOUTHERN MARYLAND

CITY           SKY/WX    TMP DP  RH WIND       PRES   REMARKS
PATUXENT RIVER MOSUNNY   36  16  44 N18       30.35R WCI  26
ST INIGOES     SUNNY     37  18  46 NW8       30.35R
LEONARDTOWN*   SUNNY     34  12  40 N7G20     30.37R

$$

MDZ003>005-161400-
NORTH CENTRAL MARYLAND

CITY           SKY/WX    TMP DP  RH WIND       PRES   REMARKS
FREDERICK*     NOT AVBL
HAGERSTOWN APT SUNNY     31  13  47 NW21      30.38R WCI  18
WESTMINSTER*   SUNNY     30  10  43 N14G20    30.35R WCI  20

$$

MDZ501>502-161400-
WESTERN MARYLAND

CITY           SKY/WX    TMP DP  RH WIND       PRES   REMARKS
OAKLAND*       NOT AVBL
CUMBERLAND*    SUNNY     32  14  47 NW8       30.47R WCI  25

$$

VAZ025>031-161400-
SHENANDOAH VALLEY

CITY           SKY/WX    TMP DP  RH WIND       PRES   REMARKS
WINCHESTER*    SUNNY     32  16  51 NW8       30.40R WCI  25
STAUNTON*      SUNNY     32  15  49 N13       30.39R WCI  23

$$

WVZ021-048>050-054>055-161400-
EASTERN WEST VIRGINIA PANHANDLE

CITY           SKY/WX    TMP DP  RH WIND       PRES   REMARKS
MARTINSBURG    SUNNY     33  11  39 N12       30.42R WCI  24
PETERSBURG*    PTSUNNY   36  23  59 N8G16     30.42R

$$

VAZ036>039-050-161400-
CENTRAL FOOTHILLS

CITY           SKY/WX    TMP DP  RH WIND       PRES   REMARKS
CHARLOTTESVILL SUNNY     36  19  50 N8G21     30.37R
CULPEPER*      SUNNY     37  16  41 NW8       30.41R

$$

VAZ055>057-161400-
NORTH AND CENTRAL PIEDMONT

CITY           SKY/WX    TMP DP  RH WIND       PRES   REMARKS
FREDERICKSBRG* SUNNY     37  18  44 N9G26     30.39R
STAFFORD*      SUNNY     37  19  48 N17G28    30.43R WCI  27

$$

NCZ024-NYZ072-PAZ021-071-VAZ022-071-161400-
OTHER REGIONAL OBSERVATIONS

CITY           SKY/WX    TMP DP  RH WIND       PRES   REMARKS
NEW YORK CITY  SUNNY     33  16  49 N9        30.30R WCI  25
PHILADELPHIA   SUNNY     34  11  38 N18G31    30.33R WCI  23
PITTSBURGH     MOSUNNY   28  15  58 NE6       30.43R
ROANOKE        MOSUNNY   34  15  46 N13       30.38R WCI  25
RICHMOND       MOSUNNY   37  18  46 N18G25    30.37R WCI  27
RALEIGH        SUNNY     37  21  52 NE9G22    30.34R

$$

ANZ530>537-161400-
MARINE OBSERVATIONS

STATION/POSITION TIME  TEMP    WIND        PRES
                       AIR SEA DIR/SP/G
                 (UTC) (F)     (DEG/KT/KT) (MB)
THOMAS PT LIGHT  1300   35 51  340/ 19/ 21 1028.5R
BALT KEY BRIDGE  1300   34     350/ 17/ 21 1028.4R
COVE POINT       1300   35     360/ 20/ 28 1027.0R
LEWISETTA        1300   36 52  360/ 14/ 21 1027.6R
SOLOMONS ISLAND  1300      53                N/A
PINEY POINT      1300          360/ 19/ 23   N/A

$$




USA.gov is the U.S. government's official web portal to all federal, state and local government web resources and services.